Weather History for KADW - November, 2012

Change the Weather History Date:

Thursday, November 22, 2012

  Actual Average Record
Temperature  
Mean Temperature 42 °F -  
Max Temperature 56 °F 53 °F 73 °F (2007)
Min Temperature 29 °F 33 °F 19 °F (2014)
Degree Days  
Heating Degree Days 22    
Moisture  
Dew Point 27 °F    
Average Humidity 62    
Maximum Humidity 86    
Minimum Humidity 34    
Precipitation  
Precipitation 0.00 in - - ()
Sea Level Pressure  
Sea Level Pressure 30.22 in    
Wind  
Wind Speed 4 mph (North)    
Max Wind Speed 8 mph    
Max Gust Speed -    
Visibility 10 miles    
Events      
Averages and records for this station are not official NWS values.
T = Trace of Precipitation, MM = Missing Value Source: NWS Daily Summary

Daily Weather History Graph

Daily Weather History Graph

Search for Another Location

Airport or City:

Trip Planner

Search our weather history database for the weather conditions in past years. The results will help you decide how hot, cold, wet, or windy it might be!

Date:

Astronomy

Nov. 22, 2012 Rise Set
Actual Time 6:58 AM EST 4:49 PM EST
Civil Twilight 6:29 AM EST 5:18 PM EST
Nautical Twilight 5:56 AM EST 5:50 PM EST
Astronomical Twilight 5:24 AM EST 6:22 PM EST
Moon 1:31 PM EST (11/22) 1:18 AM EST (11/22)
Length of Visible Light 10h 48m
Length of Day
9h 51m
Waxing Gibbous, 71% of the Moon is Illuminated
Nov 22
Waxing Gibbous
Nov 28
Full
Dec 6
Last Quarter
Dec 13
New
Dec 20
First Quarter

Hourly Weather History & Observations

Time (EST) Temp. Windchill Dew Point Humidity Pressure Visibility Wind Dir Wind Speed Gust Speed Precip Events Conditions
12:55 AM 35.1 °F - 27.0 °F 72% 30.23 in 10.0 mi Calm Calm - N/A   Clear
1:55 AM 36.0 °F 32.1 °F 27.0 °F 70% 30.23 in 10.0 mi North 4.6 mph - N/A   Clear
2:55 AM 32.2 °F 27.7 °F 26.4 °F 79% 30.24 in 10.0 mi NNW 4.6 mph - N/A   Clear
3:15 AM 30.2 °F 24.3 °F 26.6 °F 86% 30.23 in 6.0 mi NNW 5.8 mph - N/A   Haze
3:17 AM 30.2 °F 24.3 °F 26.6 °F 86% 30.23 in 7.0 mi North 5.8 mph - N/A   Clear
3:55 AM 29.7 °F 23.7 °F 25.2 °F 83% 30.23 in 8.0 mi NNW 5.8 mph - N/A   Clear
4:55 AM 32.7 °F 28.3 °F 26.1 °F 76% 30.24 in 10.0 mi NNW 4.6 mph - N/A   Clear
5:55 AM 34.3 °F 30.2 °F 26.6 °F 73% 30.24 in 10.0 mi North 4.6 mph - N/A   Clear
6:55 AM 33.8 °F 29.6 °F 26.1 °F 73% 30.25 in 10.0 mi North 4.6 mph - N/A   Clear
7:55 AM 35.4 °F 30.5 °F 27.5 °F 73% 30.27 in 10.0 mi North 5.8 mph - N/A   Clear
8:55 AM 43.9 °F 40.5 °F 31.3 °F 61% 30.27 in 10.0 mi North 5.8 mph - N/A   Clear
9:55 AM 48.6 °F - 29.7 °F 48% 30.28 in 10.0 mi NNE 6.9 mph - N/A   Clear
10:55 AM 51.3 °F - 29.5 °F 43% 30.28 in 10.0 mi NNE 6.9 mph - N/A   Clear
11:55 AM 54.3 °F - 29.1 °F 38% 30.25 in 10.0 mi NNE 6.9 mph - N/A   Clear
12:55 PM 55.8 °F - 28.4 °F 35% 30.23 in 10.0 mi NE 6.9 mph - N/A   Clear
1:55 PM 56.8 °F - 28.6 °F 34% 30.21 in 10.0 mi North 4.6 mph - N/A   Clear
2:55 PM 56.7 °F - 28.8 °F 34% 30.19 in 10.0 mi North 4.6 mph - N/A   Clear
3:55 PM 54.7 °F - 27.5 °F 35% 30.20 in 10.0 mi NNE 8.1 mph - N/A   Clear
4:55 PM 50.4 °F - 25.9 °F 39% 30.20 in 10.0 mi ENE 3.5 mph - N/A   Clear
5:55 PM 47.1 °F - 25.3 °F 43% 30.20 in 10.0 mi Calm Calm - N/A   Clear
6:55 PM 40.6 °F - 28.2 °F 61% 30.20 in 10.0 mi Calm Calm - N/A   Clear
7:55 PM 37.9 °F - 28.2 °F 68% 30.19 in 10.0 mi Calm Calm - N/A   Clear
8:55 PM 37.2 °F - 26.8 °F 66% 30.18 in 10.0 mi Calm Calm - N/A   Clear
9:55 PM 34.5 °F - 27.1 °F 74% 30.18 in 10.0 mi Calm Calm - N/A   Clear
10:55 PM 36.3 °F - 27.9 °F 71% 30.17 in 10.0 mi Calm Calm - N/A   Clear
11:55 PM 32.7 °F - 27.3 °F 81% 30.16 in 10.0 mi Calm Calm - N/A   Clear